Find Starlink 11349

NORAD ID: 61544 Int'l Des: 2024-184 Owner: SPXS Country: US Constellation: starlink operational
別名: STARLINK-11349 [DTC] celestrak
LEOCIRCULAR

現在のビュー

3D地球を読み込み中...

About Starlink 11349

Starlink 11349 (NORAD 61544) is a starlink constellation satellite (v2 mini d2c) launched Oct 15, 2024 by SPXS of US. It operates in LEO, CIRCULAR orbit with a mass of 960.00 kg.

次回通過

Passes for default location (London). Set your location on the main map for personalized predictions.

高度履歴

Loading altitude history...

軌道要素

1 61544U 24184N 26262.99743689 -.00001443 00000-0 -70540-5 0 9997
2 61544 53.1594 358.5354 0000896 85.2967 274.8154 15.69714362110931
Epoch: Sep 19, 2026 • Age: 17 hours

現在のステータス

高度 364.3 km
遠地点 / 近地点 N/A
速度 7.70 km/s
衛星直下点 47.00°N, 153.07°E
打ち上げ日 Oct 15, 2024
運用期間 1.9 years
タイプ internet

技術仕様

分類 Payload
質量 960.00 kg
乾燥質量 910.00 kg
長さ 0.30 m
スパン 29.00 m
形状 ? Box + pan
製造者 SPXS
バスタイプ Starlink V2MD
フェーズステータス In Orbit
所有者/国 SPXS/US

Most Searched